Location: Unspecified
(0.0000°N, 0.0000°E)
Time: 19:46:21
(UTC+00:00)

Envisat - Pass Details

Date: 25 June 2017
Orbit: 764 x 766 km, 98.2° (Epoch: 17 December)

Event Time Altitude Azimuth Distance (km) Brightness Sun altitude
Exits shadow 21:04:33 17° 318° (NW) 1,874 5.5 -40.8°
Drops below altitude 10° 21:05:45 10° 325° (NW) 2,294 6.0 -41.1°
Sets 21:08:12 0° 333° (NNW) 3,218 6.9 -41.6°
